Tracking 19831 objects as of 23-Aug-2019
HD Live streaming from Space Station
objects crossing your sky now

FLOCK 3P 49

Track FLOCK 3P 49 now!
10-day predictions
FLOCK 3P 49 is classified as:


NORAD ID: 42001
Int'l Code: 2017-008BF
Perigee: 491.9 km
Apogee: 500.6 km
Inclination: 97.4 °
Period: 94.4 minutes
Semi major axis: 6867 km
RCS: Unknown
Launch date: February 15, 2017
Source: United States (US)
Launch site: SRIHARIKOTA (SRI)
aabbcc
Your satellite tracking list
Your tracking list is empty




NASA's NSSDC Master Catalog

Two Line Element Set (TLE):
1 42001U 17008BF  19235.19083117  .00000858  00000-0  36667-4 0  9996
2 42001  97.4027 301.6608 0006275 295.2806  64.7782 15.25555971139792
Source of the keplerian elements: AFSPC